Hawthorne, CA

11:24 AM PDT on October 22, 2017 (GMT -0700)
Northrop-Hawthorne Municipal

Weather History for KHHR - August, 2014

Change the Weather History Date:

Saturday, August 9, 2014

  Actual Average Record
Temperature  
Mean Temperature 72 °F -  
Max Temperature 77 °F 77 °F 89 °F (1971)
Min Temperature 66 °F 64 °F 51 °F (1948)
Cooling Degree Days 6    
Growing Degree Days 22 (Base 50)    
Moisture  
Dew Point 63 °F    
Average Humidity 77    
Maximum Humidity 88    
Minimum Humidity 62    
Precipitation  
Precipitation 0.00 in - - ()
Sea Level Pressure  
Sea Level Pressure 29.95 in    
Wind  
Wind Speed 4 mph (WSW)    
Max Wind Speed 15 mph    
Max Gust Speed -    
Visibility 9 miles    
Events      
Averages and records for this station are not official NWS values.
T = Trace of Precipitation, MM = Missing Value Source: NWS Daily Summary

Daily Weather History Graph

Daily Weather History Graph

Search for Another Location

Airport or City:

Trip Planner

Search our weather history database for the weather conditions in past years. The results will help you decide how hot, cold, wet, or windy it might be!

Date:

Astronomy

Aug. 09, 2014 Rise Set
Actual Time 6:10 AM PDT 7:46 PM PDT
Civil Twilight 5:43 AM PDT 8:13 PM PDT
Nautical Twilight 5:11 AM PDT 8:45 PM PDT
Astronomical Twilight 4:37 AM PDT 9:18 PM PDT
Moon 6:53 PM PDT (8/9) 4:57 AM PDT (8/9)
Length of Visible Light 14h 29m
Length of Day
13h 35m
Waxing Gibbous, 99% of the Moon is Illuminated
Aug 9
Waxing Gibbous
Aug 10
Full
Aug 17
Last Quarter
Aug 25
New
Sep 2
First Quarter

Hourly Weather History & Observations

Time (PDT) Temp. Dew Point Humidity Pressure Visibility Wind Dir Wind Speed Gust Speed Precip Events Conditions
12:25 AM 68.0 °F 62.6 °F 83% 29.95 in 10.0 mi West 3.5 mph - N/A   Scattered Clouds
12:53 AM 66.9 °F 63.0 °F 87% 29.95 in 10.0 mi Calm Calm - N/A   Clear
1:20 AM 66.2 °F 62.6 °F 88% 29.95 in 10.0 mi WSW 3.5 mph - N/A   Mostly Cloudy
1:53 AM 68.0 °F 63.0 °F 84% 29.94 in 10.0 mi Calm Calm - N/A   Overcast
2:14 AM 68.0 °F 62.6 °F 83% 29.94 in 10.0 mi WSW 4.6 mph - N/A   Overcast
2:53 AM 68.0 °F 63.0 °F 84% 29.94 in 10.0 mi Calm Calm - N/A   Overcast
3:53 AM 69.1 °F 63.0 °F 81% 29.93 in 9.0 mi Calm Calm - N/A   Overcast
4:53 AM 69.1 °F 63.0 °F 81% 29.93 in 7.0 mi Calm Calm - N/A   Overcast
5:53 AM 70.0 °F 63.0 °F 78% 29.93 in 9.0 mi Calm Calm - N/A   Overcast
6:53 AM 70.0 °F 63.0 °F 78% 29.94 in 7.0 mi Calm Calm - N/A   Overcast
7:53 AM 70.0 °F 63.0 °F 78% 29.95 in 6.0 mi Calm Calm - N/A   Haze
8:53 AM 71.1 °F 63.0 °F 75% 29.96 in 7.0 mi Calm Calm - N/A   Overcast
10:53 AM 73.0 °F 63.0 °F 71% 29.99 in 7.0 mi WSW 8.1 mph - N/A   Overcast
11:53 AM 73.0 °F 63.0 °F 71% 29.99 in 7.0 mi West 5.8 mph - N/A   Mostly Cloudy
12:00 PM 73.4 °F 62.6 °F 69% 29.98 in 7.0 mi West 8.1 mph - N/A   Scattered Clouds
12:53 PM 75.0 °F 63.0 °F 66% 29.97 in 7.0 mi West 9.2 mph - N/A   Clear
1:53 PM 77.0 °F 63.0 °F 62% 29.96 in 8.0 mi West 11.5 mph - N/A   Clear
2:53 PM 75.9 °F 64.0 °F 67% 29.94 in 9.0 mi West 11.5 mph - N/A   Clear
3:53 PM 75.0 °F 64.0 °F 69% 29.94 in 10.0 mi WSW 11.5 mph - N/A   Clear
4:23 PM 73.4 °F 64.4 °F 73% 29.93 in 10.0 mi WSW 9.2 mph - N/A   Mostly Cloudy
4:53 PM 73.0 °F 64.0 °F 73% 29.93 in 10.0 mi West 15.0 mph - N/A   Mostly Cloudy
5:53 PM 72.0 °F 64.0 °F 76% 29.93 in 10.0 mi West 11.5 mph - N/A   Mostly Cloudy
6:23 PM 71.6 °F 64.4 °F 78% 29.92 in 10.0 mi West 11.5 mph - N/A   Mostly Cloudy
6:53 PM 70.0 °F 63.0 °F 78% 29.93 in 10.0 mi WSW 10.4 mph - N/A   Overcast
9:53 PM 69.1 °F 63.0 °F 81% 29.98 in 10.0 mi West 6.9 mph - N/A   Overcast
10:53 PM 69.1 °F 63.0 °F 81% 29.98 in 10.0 mi West 3.5 mph - N/A   Overcast
11:53 PM 70.0 °F 63.0 °F 78% 29.97 in 9.0 mi Calm Calm - N/A   Overcast